,,PA_Meas_PMT16A,,PR_Meas_QMR101_102,,RH_Meas_QMH101,,SR_Meas_QMS101,,TA_Meas_QMH101,,GenWind,,GenWind,
time,status,PA,status,PR,status,RH,status,SR,status,TA,status,DirAvg,status,SpdAvg,
2014-04-17, 06:54:04,VALID,916.573,VALID,0,VALID,96.4438,VALID,33.6291,VALID,19.4898,VALID,148,VALID,0,
2014-04-17, 06:55:04,VALID,916.569,VALID,0,VALID,96.4515,VALID,35.3481,VALID,19.5093,VALID,148,VALID,0,
2014-04-17, 06:56:04,VALID,916.555,VALID,0,VALID,96.4515,VALID,36.6374,VALID,19.5093,VALID,148,VALID,0,
2014-04-17, 06:57:04,VALID,916.581,VALID,0,VALID,96.4438,VALID,38.4639,VALID,19.5093,VALID,148,VALID,0,
2014-04-17, 06:58:04,VALID,916.607,VALID,0,VALID,96.4286,VALID,40.5053,VALID,19.5093,VALID,148,VALID,0,
2014-04-17, 06:59:04,VALID,916.593,VALID,0,VALID,96.4133,VALID,42.4393,VALID,19.5288,VALID,148,VALID,0,
2014-04-17, 07:00:04,VALID,916.59,VALID,0,VALID,96.421,VALID,44.4806,VALID,19.5288,VALID,148,VALID,0,
2014-04-17, 07:01:04,VALID,916.606,VALID,0,VALID,96.4286,VALID,46.3071,VALID,19.5483,VALID,148,VALID,0.146484,
2014-04-17, 07:02:04,VALID,916.631,VALID,0,VALID,96.421,VALID,48.1336,VALID,19.5873,VALID,148,VALID,0,
2014-04-17, 07:03:04,VALID,916.675,VALID,0,VALID,96.4057,VALID,49.6378,VALID,19.5873,VALID,148,VALID,0,
2014-04-17, 07:04:04,VALID,916.633,VALID,0,VALID,96.4133,VALID,51.0345,VALID,19.5873,VALID,148,VALID,0.226563,
2014-04-17, 07:05:04,VALID,916.662,VALID,0,VALID,96.4057,VALID,52.4313,VALID,19.5858,VALID,148,VALID,0.305078,
2014-04-17, 07:06:04,VALID,916.664,VALID,0,VALID,96.3981,VALID,53.9355,VALID,19.6068,VALID,148,VALID,0.3375,
2014-04-17, 07:07:04,VALID,916.683,VALID,0,VALID,96.3981,VALID,55.5471,VALID,19.5873,VALID,148,VALID,0.448438,
2014-04-17, 07:08:04,VALID,916.673,VALID,0,VALID,96.3981,VALID,57.3736,VALID,19.5873,VALID,148,VALID,0.469922,
2014-04-17, 07:09:04,VALID,916.709,VALID,0,VALID,96.3829,VALID,60.0596,VALID,19.6263,VALID,148,VALID,0.421875,
2014-04-17, 07:10:04,VALID,916.748,VALID,0,VALID,96.3905,VALID,62.9605,VALID,19.6458,VALID,148,VALID,0.582031,
2014-04-17, 07:11:04,VALID,916.752,VALID,0,VALID,96.3676,VALID,68.1177,VALID,19.6848,VALID,148,VALID,0.28125,
2014-04-17, 07:12:04,VALID,916.768,VALID,0,VALID,96.3752,VALID,69.8367,VALID,19.7238,VALID,148,VALID,0.394922,
2014-04-17, 07:13:04,VALID,916.795,VALID,0,VALID,96.36,VALID,74.027,VALID,19.7628,VALID,148,VALID,0.351172,
2014-04-17, 07:14:04,VALID,916.845,VALID,0,VALID,96.36,VALID,79.8288,VALID,19.8408,VALID,136,VALID,0.717188,
2014-04-17, 07:15:04,VALID,916.863,VALID,0,VALID,96.36,VALID,90.4654,VALID,19.8213,VALID,124,VALID,0.786719,
2014-04-17, 07:16:04,VALID,916.855,VALID,0,VALID,96.36,VALID,119.26,VALID,19.8603,VALID,124,VALID,0.542578,
2014-04-17, 07:17:04,VALID,916.854,VALID,0,VALID,96.3371,VALID,128.07,VALID,19.8798,VALID,124,VALID,0.779688,
2014-04-17, 07:18:04,VALID,916.849,VALID,0,VALID,96.299,VALID,94.8705,VALID,19.8783,VALID,124,VALID,0.719141,
2014-04-17, 07:19:04,VALID,916.825,VALID,0,VALID,96.2914,VALID,90.7878,VALID,19.9968,VALID,124,VALID,0.730859,
2014-04-17, 07:20:04,VALID,916.83,VALID,0,VALID,96.2533,VALID,94.4408,VALID,20.0163,VALID,84,VALID,1.09258,
2014-04-17, 07:21:04,VALID,916.837,VALID,0,VALID,96.238,VALID,93.044,VALID,20.0148,VALID,84,VALID,0.963281,
2014-04-17, 07:22:04,VALID,916.882,VALID,0,VALID,96.1999,VALID,107.119,VALID,20.0538,VALID,84,VALID,0.941016,
2014-04-17, 07:23:04,VALID,916.913,VALID,0,VALID,96.1618,VALID,95.0854,VALID,20.0944,VALID,44,VALID,1.28359,
2014-04-17, 07:24:04,VALID,916.906,VALID,0,VALID,96.116,VALID,92.1845,VALID,20.1139,VALID,44,VALID,0.893359,
2014-04-17, 07:25:04,VALID,916.926,VALID,0,VALID,96.116,VALID,93.7961,VALID,20.1318,VALID,44,VALID,0.8125,
2014-04-17, 07:26:04,VALID,916.924,VALID,0,VALID,96.0627,VALID,95.4077,VALID,20.1708,VALID,44,VALID,0.528516,
2014-04-17, 07:27:04,VALID,916.923,VALID,0,VALID,96.0398,VALID,96.9119,VALID,20.2114,VALID,44,VALID,0.523438,
2014-04-17, 07:28:04,VALID,916.909,VALID,0,VALID,95.9864,VALID,98.4161,VALID,20.2504,VALID,44,VALID,0.359766,
2014-04-17, 07:29:04,VALID,916.951,VALID,0,VALID,95.9559,VALID,99.1682,VALID,20.2699,VALID,44,VALID,0.35625,
2014-04-17, 07:30:04,VALID,916.967,VALID,0,VALID,95.8873,VALID,99.4905,VALID,20.2309,VALID,44,VALID,0.514063,
2014-04-17, 07:31:04,VALID,916.976,VALID,0,VALID,95.8187,VALID,100.78,VALID,20.1708,VALID,44,VALID,0.349219,
2014-04-17, 07:32:04,VALID,916.994,VALID,0,VALID,95.7654,VALID,101.21,VALID,20.1708,VALID,44,VALID,0.216797,
2014-04-17, 07:33:04,VALID,917.055,VALID,0,VALID,95.7654,VALID,102.821,VALID,20.2309,VALID,44,VALID,0.257422,
2014-04-17, 07:34:04,VALID,917.059,VALID,0,VALID,95.7425,VALID,104.433,VALID,20.2309,VALID,45,VALID,0.451953,
2014-04-17, 07:35:04,VALID,917.08,VALID,0,VALID,95.6967,VALID,106.582,VALID,20.1919,VALID,44,VALID,0.411719,
2014-04-17, 07:36:04,VALID,917.095,VALID,0,VALID,95.6434,VALID,109.483,VALID,20.1919,VALID,44,VALID,0.182812,
2014-04-17, 07:37:04,VALID,917.084,VALID,0,VALID,95.6205,VALID,111.846,VALID,20.1708,VALID,44,VALID,0.276172,
2014-04-17, 07:38:04,VALID,917.091,VALID,0,VALID,95.59,VALID,113.78,VALID,20.1903,VALID,44,VALID,0.203125,
2014-04-17, 07:39:04,VALID,917.091,VALID,0,VALID,95.5671,VALID,115.607,VALID,20.2293,VALID,44,VALID,0,
2014-04-17, 07:40:04,VALID,917.094,VALID,0,VALID,95.5671,VALID,117.541,VALID,20.2684,VALID,44,VALID,0.252344,
2014-04-17, 07:41:04,VALID,917.096,VALID,0,VALID,95.5671,VALID,119.689,VALID,20.3269,VALID,44,VALID,0.217578,
2014-04-17, 07:42:04,VALID,917.096,VALID,0,VALID,95.5443,VALID,122.483,VALID,20.3854,VALID,44,VALID,0.445703,
2014-04-17, 07:43:04,VALID,917.132,VALID,0,VALID,95.529,VALID,126.458,VALID,20.4439,VALID,44,VALID,0.627734,
2014-04-17, 07:44:04,VALID,917.13,VALID,0,VALID,95.5062,VALID,128.929,VALID,20.543,VALID,44,VALID,0.409375,
2014-04-17, 07:45:04,VALID,917.149,VALID,0,VALID,95.4528,VALID,130.971,VALID,20.5804,VALID,44,VALID,0.251172,
2014-04-17, 07:46:04,VALID,917.159,VALID,0,VALID,95.3994,VALID,133.12,VALID,20.678,VALID,44,VALID,0.225391,
2014-04-17, 07:47:04,VALID,917.168,VALID,0,VALID,95.3232,VALID,134.839,VALID,20.717,VALID,45,VALID,0.447656,
2014-04-17, 07:48:04,VALID,917.179,VALID,0,VALID,95.0945,VALID,136.235,VALID,20.717,VALID,46,VALID,0.440234,
2014-04-17, 07:49:04,VALID,917.202,VALID,0,VALID,94.942,VALID,138.062,VALID,20.756,VALID,46,VALID,0.213281,
2014-04-17, 07:50:04,VALID,917.221,VALID,0,VALID,94.7819,VALID,140.64,VALID,20.795,VALID,46,VALID,0.00195313,
2014-04-17, 07:51:04,VALID,917.218,VALID,0,VALID,94.7209,VALID,144.508,VALID,20.873,VALID,46,VALID,0.451562,
2014-04-17, 07:52:04,VALID,917.23,VALID,0,VALID,94.4236,VALID,148.699,VALID,20.8925,VALID,46,VALID,0.251953,
2014-04-17, 07:53:04,VALID,917.219,VALID,0,VALID,94.1949,VALID,152.566,VALID,20.9105,VALID,46,VALID,0.0394531,
2014-04-17, 07:54:04,VALID,917.222,VALID,0,VALID,93.6537,VALID,155.682,VALID,20.9495,VALID,45,VALID,0.436719,
2014-04-17, 07:55:04,VALID,917.223,VALID,0,VALID,93.2268,VALID,158.583,VALID,21.008,VALID,45,VALID,0.477734,
2014-04-17, 07:56:04,VALID,917.208,VALID,0,VALID,92.6626,VALID,161.269,VALID,21.047,VALID,45,VALID,0.858984,
2014-04-17, 07:57:04,VALID,917.21,VALID,0,VALID,92.4339,VALID,164.278,VALID,21.1461,VALID,45,VALID,0.635547,
2014-04-17, 07:58:04,VALID,917.221,VALID,0,VALID,92.1214,VALID,167.071,VALID,21.2047,VALID,45,VALID,0.431641,
2014-04-17, 07:59:04,VALID,917.269,VALID,0,VALID,91.8317,VALID,171.906,VALID,21.2421,VALID,45,VALID,0.648438,
2014-04-17, 08:00:04,VALID,917.296,VALID,0,VALID,91.3057,VALID,177.815,VALID,21.2421,VALID,45,VALID,0.809375,
2014-04-17, 08:01:04,VALID,917.315,VALID,0,VALID,90.9702,VALID,180.716,VALID,21.2811,VALID,45,VALID,0.747266,
2014-04-17, 08:02:04,VALID,917.326,VALID,0,VALID,90.8711,VALID,185.121,VALID,21.3412,VALID,45,VALID,0.65625,
2014-04-17, 08:03:04,VALID,917.359,VALID,0,VALID,90.0783,VALID,189.204,VALID,21.3786,VALID,49,VALID,0.915625,
2014-04-17, 08:04:04,VALID,917.352,VALID,0,VALID,89.476,VALID,195.006,VALID,21.3981,VALID,49,VALID,0.707422,
2014-04-17, 08:05:04,VALID,917.372,VALID,0,VALID,88.8052,VALID,205.965,VALID,21.3786,VALID,49,VALID,0.755078,
2014-04-17, 08:06:04,VALID,917.405,VALID,0,VALID,89.0263,VALID,211.229,VALID,21.3786,VALID,49,VALID,0.744141,
2014-04-17, 08:07:04,VALID,917.406,VALID,0,VALID,88.9424,VALID,221.973,VALID,21.3786,VALID,49,VALID,0.823828,
2014-04-17, 08:08:04,VALID,917.426,VALID,0,VALID,88.7594,VALID,233.362,VALID,21.3786,VALID,49,VALID,0.534766,
2014-04-17, 08:09:04,VALID,917.403,VALID,0,VALID,89.1635,VALID,226.593,VALID,21.4388,VALID,48,VALID,0.564062,
2014-04-17, 08:10:04,VALID,917.436,VALID,0,VALID,89.4455,VALID,250.445,VALID,21.5152,VALID,49,VALID,0.622266,
2014-04-17, 08:11:04,VALID,917.445,VALID,0,VALID,87.898,VALID,258.074,VALID,21.5347,VALID,49,VALID,0.726172,
2014-04-17, 08:12:04,VALID,917.461,VALID,0,VALID,87.5244,VALID,371.102,VALID,21.5754,VALID,49,VALID,0.450781,
2014-04-17, 08:13:04,VALID,917.419,VALID,0,VALID,88.1648,VALID,299.009,VALID,21.6518,VALID,49,VALID,0.257031,
2014-04-17, 08:14:04,VALID,917.461,VALID,0,VALID,88.5307,VALID,281.388,VALID,21.7883,VALID,49,VALID,0.448047,
2014-04-17, 08:15:04,VALID,917.456,VALID,0,VALID,88.6603,VALID,268.925,VALID,21.9444,VALID,49,VALID,0.0953125,
2014-04-17, 08:16:04,VALID,917.482,VALID,0,VALID,88.668,VALID,239.809,VALID,22.081,VALID,48,VALID,0.175,
2014-04-17, 08:17:04,VALID,917.515,VALID,0,VALID,87.8065,VALID,233.792,VALID,22.1786,VALID,48,VALID,0.0773437,
2014-04-17, 08:18:04,VALID,917.524,VALID,0,VALID,86.846,VALID,245.181,VALID,22.2567,VALID,48,VALID,0.0859375,
2014-04-17, 08:19:04,VALID,917.552,VALID,0,VALID,85.771,VALID,279.347,VALID,22.2176,VALID,45,VALID,0.448047,
2014-04-17, 08:20:04,VALID,917.567,VALID,0,VALID,85.9083,VALID,283.752,VALID,22.1217,VALID,45,VALID,0.641797,
2014-04-17, 08:21:04,VALID,917.602,VALID,0,VALID,86.3581,VALID,310.612,VALID,21.9835,VALID,45,VALID,0.567187,
2014-04-17, 08:22:04,VALID,917.595,VALID,0,VALID,87.5626,VALID,283.86,VALID,21.9444,VALID,45,VALID,0.530859,
2014-04-17, 08:23:04,VALID,917.619,VALID,0,VALID,88.3706,VALID,284.289,VALID,21.9233,VALID,45,VALID,0.508984,
2014-04-17, 08:24:04,VALID,917.632,VALID,0,VALID,88.1877,VALID,300.298,VALID,21.9249,VALID,45,VALID,0.498437,
2014-04-17, 08:25:04,VALID,917.661,VALID,0,VALID,88.2029,VALID,277.628,VALID,21.964,VALID,45,VALID,0.399609,
2014-04-17, 08:26:04,VALID,917.649,VALID,0,VALID,88.3935,VALID,303.736,VALID,21.9851,VALID,45,VALID,0.262891,
2014-04-17, 08:27:04,VALID,917.657,VALID,0,VALID,88.2487,VALID,237.875,VALID,22.003,VALID,45,VALID,0.242578,
2014-04-17, 08:28:04,VALID,917.642,VALID,0,VALID,88.3706,VALID,224.445,VALID,22.042,VALID,61,VALID,0.522266,
2014-04-17, 08:29:04,VALID,917.64,VALID,0,VALID,88.4392,VALID,289.984,VALID,22.1005,VALID,129,VALID,1.04258,
2014-04-17, 08:30:04,VALID,917.664,VALID,0,VALID,87.593,VALID,314.803,VALID,22.1005,VALID,140,VALID,1.10078,
2014-04-17, 08:31:04,VALID,917.643,VALID,0,VALID,87.0213,VALID,271.289,VALID,22.042,VALID,150,VALID,0.853906,
2014-04-17, 08:32:04,VALID,917.641,VALID,0,VALID,86.8841,VALID,383.457,VALID,22.0615,VALID,150,VALID,0.514063,
2014-04-17, 08:33:04,VALID,917.686,VALID,0,VALID,87.0137,VALID,381.094,VALID,22.1981,VALID,189,VALID,0.75,
2014-04-17, 08:34:04,VALID,917.681,VALID,0,VALID,87.372,VALID,446.525,VALID,22.3737,VALID,181,VALID,0.811719,
2014-04-17, 08:35:04,VALID,917.719,VALID,0,VALID,86.4724,VALID,484.022,VALID,22.5689,VALID,176,VALID,0.603125,
2014-04-17, 08:36:04,VALID,917.736,VALID,0,VALID,85.4204,VALID,531.941,VALID,22.7623,VALID,149,VALID,0.326562,
2014-04-17, 08:37:04,VALID,917.74,VALID,0,VALID,84.6352,VALID,531.404,VALID,22.9787,VALID,192,VALID,0.722266,
2014-04-17, 08:38:04,VALID,917.744,VALID,0,VALID,83.9567,VALID,530.544,VALID,23.1136,VALID,191,VALID,1.10859,
2014-04-17, 08:39:04,VALID,917.758,VALID,0,VALID,83.1867,VALID,444.377,VALID,23.2325,VALID,220,VALID,0.635547,
2014-04-17, 08:40:04,VALID,917.799,VALID,0,VALID,82.9504,VALID,425.682,VALID,23.252,VALID,199,VALID,0.683203,
2014-04-17, 08:41:04,VALID,917.777,VALID,0,VALID,83.545,VALID,489.287,VALID,23.3283,VALID,233,VALID,0.474219,
2014-04-17, 08:42:04,VALID,917.819,VALID,0,VALID,81.3876,VALID,576.744,VALID,23.4454,VALID,198,VALID,0.842969,
2014-04-17, 08:43:04,VALID,917.784,VALID,0,VALID,82.1118,VALID,604.786,VALID,23.5626,VALID,154,VALID,0.878906,
2014-04-17, 08:44:04,VALID,917.834,VALID,0,VALID,82.2795,VALID,596.298,VALID,23.7382,VALID,142,VALID,0.548047,
2014-04-17, 08:45:04,VALID,917.814,VALID,0,VALID,80.4347,VALID,504.973,VALID,23.7578,VALID,177,VALID,1.1418,
2014-04-17, 08:46:04,VALID,917.843,VALID,0,VALID,82.0508,VALID,355.953,VALID,23.7968,VALID,177,VALID,0.238672,
2014-04-17, 08:47:04,VALID,917.812,VALID,0,VALID,78.7728,VALID,327.588,VALID,23.8749,VALID,64,VALID,0.9875,
2014-04-17, 08:48:04,VALID,917.829,VALID,0,VALID,81.4867,VALID,374.54,VALID,23.7578,VALID,78,VALID,0.589453,
2014-04-17, 08:49:04,VALID,917.833,VALID,0,VALID,79.0167,VALID,507.767,VALID,23.7187,VALID,82,VALID,0.691797,
2014-04-17, 08:50:04,VALID,917.845,VALID,0,VALID,78.1553,VALID,537.743,VALID,23.5608,VALID,82,VALID,0.749609,
2014-04-17, 08:51:04,VALID,917.836,VALID,0,VALID,79.8019,VALID,528.288,VALID,23.5235,VALID,120,VALID,0.526172,
2014-04-17, 08:52:04,VALID,917.836,VALID,0,VALID,80.0154,VALID,511.85,VALID,23.6797,VALID,109,VALID,0.928906,
2014-04-17, 08:53:04,VALID,917.869,VALID,0,VALID,77.4844,VALID,486.171,VALID,23.7205,VALID,71,VALID,0.888281,
2014-04-17, 08:54:04,VALID,917.874,VALID,0,VALID,78.605,VALID,455.121,VALID,23.7205,VALID,76,VALID,0.815234,
2014-04-17, 08:55:04,VALID,917.88,VALID,0,VALID,79.8324,VALID,457.27,VALID,23.6797,VALID,74,VALID,0.958984,
2014-04-17, 08:56:04,VALID,917.861,VALID,0,VALID,80.084,VALID,472.634,VALID,23.7773,VALID,43,VALID,1.00273,
2014-04-17, 08:57:04,VALID,917.871,VALID,0,VALID,79.6418,VALID,476.609,VALID,23.8749,VALID,46,VALID,0.604297,
2014-04-17, 08:58:04,VALID,917.875,VALID,0,VALID,80.1755,VALID,483.163,VALID,24.0115,VALID,42,VALID,0.906641,
2014-04-17, 08:59:04,VALID,917.883,VALID,0,VALID,77.0422,VALID,488.427,VALID,24.1092,VALID,48,VALID,0.602344,
2014-04-17, 09:00:04,VALID,917.873,VALID,0,VALID,78.4373,VALID,515.932,VALID,24.1873,VALID,48,VALID,0.137109,
2014-04-17, 09:01:04,VALID,917.872,VALID,0,VALID,77.3777,VALID,511.312,VALID,24.4997,VALID,41,VALID,0.820313,
2014-04-17, 09:02:04,VALID,917.886,VALID,0,VALID,75.1516,VALID,409.458,VALID,24.6735,VALID,40,VALID,0.359766,
2014-04-17, 09:03:04,VALID,917.939,VALID,0,VALID,74.7019,VALID,409.351,VALID,24.7926,VALID,40,VALID,0.302734,
2014-04-17, 09:04:04,VALID,917.898,VALID,0,VALID,75.975,VALID,504.006,VALID,24.8883,VALID,60,VALID,0.772266,
2014-04-17, 09:05:04,VALID,917.883,VALID,0,VALID,75.0602,VALID,557.834,VALID,25.1031,VALID,53,VALID,0.435547,
2014-04-17, 09:06:04,VALID,917.897,VALID,0,VALID,73.322,VALID,540.644,VALID,25.2203,VALID,70,VALID,0.79375,
2014-04-17, 09:07:04,VALID,917.899,VALID,0,VALID,73.6651,VALID,570.942,VALID,25.2398,VALID,70,VALID,0.438281,
2014-04-17, 09:08:04,VALID,917.91,VALID,0,VALID,73.4745,VALID,592.323,VALID,25.3003,VALID,70,VALID,0.248047,
2014-04-17, 09:09:04,VALID,917.941,VALID,0,VALID,73.4897,VALID,612.629,VALID,25.4156,VALID,70,VALID,0.441406,
2014-04-17, 09:10:04,VALID,917.916,VALID,0,VALID,71.9346,VALID,621.977,VALID,25.5327,VALID,167,VALID,0.874219,
2014-04-17, 09:11:04,VALID,917.937,VALID,0,VALID,71.6372,VALID,628.316,VALID,25.3374,VALID,169,VALID,1.10195,
2014-04-17, 09:12:04,VALID,917.957,VALID,0,VALID,72.7808,VALID,633.151,VALID,25.2965,VALID,197,VALID,1.32227,
2014-04-17, 09:13:04,VALID,917.938,VALID,0,VALID,73.5812,VALID,635.729,VALID,25.316,VALID,196,VALID,0.923828,
2014-04-17, 09:14:04,VALID,917.904,VALID,0,VALID,74.5189,VALID,602.96,VALID,25.357,VALID,228,VALID,1.09883,
2014-04-17, 09:15:04,VALID,917.933,VALID,0,VALID,72.9485,VALID,500.891,VALID,25.0836,VALID,214,VALID,1.49727,
2014-04-17, 09:16:04,VALID,917.924,VALID,0,VALID,72.0489,VALID,625.737,VALID,24.9078,VALID,224,VALID,1.05195,
2014-04-17, 09:17:04,VALID,917.924,VALID,0,VALID,72.2471,VALID,616.82,VALID,24.9078,VALID,227,VALID,0.483594,
2014-04-17, 09:18:04,VALID,917.941,VALID,0,VALID,72.735,VALID,587.166,VALID,24.8297,VALID,225,VALID,0.923437,
2014-04-17, 09:19:04,VALID,917.927,VALID,0,VALID,74.4045,VALID,606.613,VALID,24.9059,VALID,171,VALID,0.716016,
2014-04-17, 09:20:04,VALID,917.906,VALID,0,VALID,75.266,VALID,612.092,VALID,25.1226,VALID,124,VALID,0.781641,
2014-04-17, 09:21:04,VALID,917.947,VALID,0,VALID,72.1785,VALID,617.894,VALID,25.1617,VALID,219,VALID,1,
2014-04-17, 09:22:04,VALID,917.903,VALID,0,VALID,72.7655,VALID,485.097,VALID,25.025,VALID,252,VALID,0.680469,
2014-04-17, 09:23:04,VALID,917.923,VALID,0,VALID,73.8404,VALID,425.467,VALID,24.8083,VALID,265,VALID,1.12148,
2014-04-17, 09:24:04,VALID,917.931,VALID,0,VALID,74.5189,VALID,341.448,VALID,24.6149,VALID,266,VALID,1.59531,
2014-04-17, 09:25:04,VALID,917.926,VALID,0,VALID,76.3942,VALID,539.14,VALID,24.4606,VALID,250,VALID,1.02969,
2014-04-17, 09:26:04,VALID,917.922,VALID,0,VALID,75.3422,VALID,624.018,VALID,24.4197,VALID,212,VALID,0.687891,
2014-04-17, 09:27:04,VALID,917.917,VALID,0,VALID,74.2826,VALID,608.762,VALID,24.4978,VALID,212,VALID,0.384766,
2014-04-17, 09:28:04,VALID,917.905,VALID,0,VALID,74.1149,VALID,606.613,VALID,24.5564,VALID,212,VALID,0.559766,
2014-04-17, 09:29:04,VALID,917.916,VALID,0,VALID,74.9534,VALID,607.58,VALID,24.654,VALID,212,VALID,0.124609,
2014-04-17, 09:30:04,VALID,917.93,VALID,0,VALID,73.444,VALID,607.472,VALID,24.8688,VALID,214,VALID,0.538281,
2014-04-17, 09:31:04,VALID,917.929,VALID,0,VALID,72.7426,VALID,608.332,VALID,24.9664,VALID,169,VALID,1.06016,
2014-04-17, 09:32:04,VALID,917.938,VALID,0,VALID,72.6512,VALID,609.943,VALID,24.9274,VALID,116,VALID,1.13516,
2014-04-17, 09:33:04,VALID,917.931,VALID,0,VALID,74.0081,VALID,612.737,VALID,25.0426,VALID,116,VALID,1.17734,
2014-04-17, 09:34:04,VALID,917.955,VALID,0,VALID,72.2166,VALID,618.431,VALID,25.2788,VALID,116,VALID,1.13008,
2014-04-17, 09:35:04,VALID,917.984,VALID,0,VALID,72.4911,VALID,623.051,VALID,25.4937,VALID,116,VALID,0.59375,
2014-04-17, 09:36:04,VALID,918.001,VALID,0,VALID,69.2435,VALID,626.812,VALID,25.7691,VALID,116,VALID,1.10586,
2014-04-17, 09:37:04,VALID,918.003,VALID,0,VALID,66.621,VALID,632.936,VALID,25.689,VALID,340,VALID,1.11055,
2014-04-17, 09:38:04,VALID,918.019,VALID,0,VALID,66.9107,VALID,639.06,VALID,25.6675,VALID,355,VALID,1.54922,
2014-04-17, 09:39:04,VALID,918.027,VALID,0,VALID,67.3453,VALID,642.391,VALID,25.7476,VALID,340,VALID,0.758984,
2014-04-17, 09:40:04,VALID,918.035,VALID,0,VALID,68.1838,VALID,645.184,VALID,25.6499,VALID,340,VALID,0.938672,
2014-04-17, 09:41:04,VALID,918.031,VALID,0,VALID,68.9614,VALID,646.796,VALID,25.5718,VALID,340,VALID,0.382813,
2014-04-17, 09:42:04,VALID,917.991,VALID,0,VALID,69.9372,VALID,647.548,VALID,25.6304,VALID,340,VALID,0.645312,
2014-04-17, 09:43:04,VALID,918.051,VALID,0,VALID,68.9538,VALID,646.796,VALID,25.6694,VALID,340,VALID,0.852734,
2014-04-17, 09:44:04,VALID,918.019,VALID,0,VALID,66.339,VALID,647.548,VALID,25.6109,VALID,340,VALID,0.451953,
2014-04-17, 09:45:04,VALID,918.042,VALID,0,VALID,66.1636,VALID,649.482,VALID,25.7261,VALID,340,VALID,0.349609,
2014-04-17, 09:46:04,VALID,918.045,VALID,0,VALID,65.7443,VALID,651.093,VALID,25.8237,VALID,340,VALID,0.447656,
2014-04-17, 09:47:04,VALID,918.031,VALID,0,VALID,68.2753,VALID,652.92,VALID,26.0406,VALID,340,VALID,0.819141,
2014-04-17, 09:48:04,VALID,918.02,VALID,0,VALID,63.4954,VALID,652.598,VALID,26.1382,VALID,340,VALID,1.24531,
2014-04-17, 09:49:04,VALID,918.011,VALID,0,VALID,65.2031,VALID,652.92,VALID,25.7866,VALID,340,VALID,1.66992,
2014-04-17, 09:50:04,VALID,918.014,VALID,0,VALID,66.8802,VALID,654.424,VALID,25.5308,VALID,340,VALID,0.778516,
2014-04-17, 09:51:04,VALID,918.039,VALID,0,VALID,67.2004,VALID,664.523,VALID,25.5698,VALID,340,VALID,0.775,
2014-04-17, 09:52:04,VALID,918.026,VALID,0,VALID,66.7811,VALID,682.681,VALID,25.5913,VALID,340,VALID,1.1043,
2014-04-17, 09:53:04,VALID,918.036,VALID,0,VALID,64.5398,VALID,582.116,VALID,25.5523,VALID,340,VALID,1.48398,
2014-04-17, 09:54:04,VALID,918.046,VALID,0,VALID,65.752,VALID,670.325,VALID,25.4331,VALID,340,VALID,1.47852,
2014-04-17, 09:55:04,VALID,918.083,VALID,0,VALID,67.1089,VALID,674.193,VALID,25.3746,VALID,249,VALID,1.58594,
2014-04-17, 09:56:04,VALID,918.06,VALID,0,VALID,66.743,VALID,679.673,VALID,25.3765,VALID,222,VALID,0.664453,
2014-04-17, 09:57:04,VALID,918.064,VALID,0,VALID,69.5713,VALID,682.466,VALID,25.4937,VALID,181,VALID,1.45469,
2014-04-17, 09:58:04,VALID,918.039,VALID,0,VALID,71.5763,VALID,688.698,VALID,25.6284,VALID,282,VALID,1.56641,
2014-04-17, 09:59:04,VALID,918.063,VALID,0,VALID,68.9995,VALID,685.475,VALID,25.9214,VALID,304,VALID,0.716797,
2014-04-17, 10:00:04,VALID,918.043,VALID,0,VALID,68.0924,VALID,685.475,VALID,25.9409,VALID,311,VALID,1.33008,
2014-04-17, 10:01:04,VALID,918.016,VALID,0,VALID,68.9004,VALID,694.392,VALID,25.8237,VALID,338,VALID,1.10938,
2014-04-17, 10:02:04,VALID,918.019,VALID,0,VALID,68.2067,VALID,699.227,VALID,25.7066,VALID,315,VALID,0.885547,
2014-04-17, 10:03:04,VALID,918.032,VALID,0,VALID,69.0148,VALID,695.681,VALID,25.7847,VALID,315,VALID,0,
2014-04-17, 10:04:04,VALID,918.003,VALID,0,VALID,68.5193,VALID,698.582,VALID,26.0796,VALID,315,VALID,0.334375,
2014-04-17, 10:05:04,VALID,917.996,VALID,0,VALID,66.7278,VALID,705.029,VALID,26.312,VALID,316,VALID,0.202344,
2014-04-17, 10:06:04,VALID,917.971,VALID,0,VALID,64.5627,VALID,725.335,VALID,26.4508,VALID,300,VALID,0.823438,
2014-04-17, 10:07:04,VALID,918.004,VALID,0,VALID,68.8166,VALID,745.534,VALID,26.4097,VALID,327,VALID,1.15156,
2014-04-17, 10:08:04,VALID,917.983,VALID,0,VALID,65.8358,VALID,718.459,VALID,26.4683,VALID,23,VALID,1.08086,
2014-04-17, 10:09:04,VALID,917.965,VALID,0,VALID,65.4547,VALID,727.914,VALID,26.5464,VALID,328,VALID,0.471094,
2014-04-17, 10:10:04,VALID,917.976,VALID,0,VALID,67.7645,VALID,727.269,VALID,26.603,VALID,36,VALID,1.25859,
2014-04-17, 10:11:04,VALID,917.947,VALID,0,VALID,63.0914,VALID,719.319,VALID,26.5269,VALID,326,VALID,1.4082,
2014-04-17, 10:12:04,VALID,917.939,VALID,0,VALID,66.7964,VALID,723.079,VALID,26.3902,VALID,355,VALID,1.8543,
2014-04-17, 10:13:04,VALID,917.964,VALID,0,VALID,65.2641,VALID,727.269,VALID,26.1753,VALID,10,VALID,3.37812,
2014-04-17, 10:14:04,VALID,917.955,VALID,0,VALID,67.0937,VALID,733.286,VALID,25.9409,VALID,21,VALID,2.28203,
2014-04-17, 10:15:04,VALID,917.965,VALID,0,VALID,67.147,VALID,738.443,VALID,25.9409,VALID,357,VALID,2.2875,
2014-04-17, 10:16:04,VALID,917.975,VALID,0,VALID,69.1215,VALID,746.501,VALID,25.9214,VALID,359,VALID,0.970703,
2014-04-17, 10:17:04,VALID,917.984,VALID,0,VALID,66.4762,VALID,748.65,VALID,25.9604,VALID,325,VALID,1.52227,
2014-04-17, 10:18:04,VALID,917.959,VALID,0,VALID,68.9538,VALID,763.047,VALID,25.9214,VALID,358,VALID,1.17617,
2014-04-17, 10:19:04,VALID,917.945,VALID,0,VALID,68.748,VALID,773.576,VALID,26.1538,VALID,39,VALID,1.19414,
2014-04-17, 10:20:04,VALID,917.935,VALID,0,VALID,65.8358,VALID,807.42,VALID,26.5249,VALID,34,VALID,0.525,
2014-04-17, 10:21:04,VALID,917.948,VALID,0,VALID,63.6174,VALID,827.834,VALID,26.6812,VALID,302,VALID,1.525,
2014-04-17, 10:22:04,VALID,917.93,VALID,0,VALID,64.8067,VALID,839.653,VALID,26.605,VALID,360,VALID,2.04727,
2014-04-17, 10:23:04,VALID,917.896,VALID,0,VALID,68.565,VALID,825.47,VALID,26.6441,VALID,42,VALID,2.03789,
2014-04-17, 10:24:04,VALID,917.963,VALID,0,VALID,63.8461,VALID,836,VALID,26.6832,VALID,316,VALID,1.73281,
2014-04-17, 10:25:04,VALID,917.939,VALID,0,VALID,68.9386,VALID,822.462,VALID,26.4858,VALID,345,VALID,1.08828,
2014-04-17, 10:26:04,VALID,918.028,VALID,0,VALID,65.9121,VALID,825.255,VALID,26.6616,VALID,357,VALID,2.45117,
2014-04-17, 10:27:04,VALID,917.975,VALID,0,VALID,67.4139,VALID,826.867,VALID,26.7418,VALID,297,VALID,0.934766,
2014-04-17, 10:28:04,VALID,918.008,VALID,0,VALID,65.5919,VALID,836.967,VALID,26.8179,VALID,18,VALID,0.837891,